FW7501 Weather Reports


Display with metric or nautical units.
time (UTC)temp
F
wind
direction
speed
MPH
gust
MPH
rain 1hr
in
rain 24hr
in
rain mn
in
humidity
%
barometer
mb
20260902125506 49 352 3.0 6.0 0.00 0.00 0.00 73 1012.4
20260902125008 49 356 2.0 6.0 0.00 0.00 0.00 73 1012.5
20260902124509 49 12 2.0 8.0 0.00 0.00 0.00 73 1012.6
20260902124009 49 338 5.0 8.0 0.00 0.00 0.00 73 1012.6
20260902123512 49 357 2.0 5.0 0.00 0.00 0.00 73 1012.7
20260902123024 49 308 1.0 3.0 0.00 0.00 0.00 73 1012.7
20260902122514 49 308 2.0 3.0 0.00 0.00 0.00 72 1012.8
20260902122009 49 308 0.0 3.0 0.00 0.00 0.00 71 1012.8
20260902121526 49 308 0.0 4.0 0.00 0.00 0.00 71 1012.8
20260902121017 49 313 1.0 5.0 0.00 0.00 0.00 72 1012.7
20260902120509 49 354 2.0 5.0 0.00 0.00 0.00 71 1012.7
20260902120032 49 73 1.0 6.0 0.00 0.00 0.00 72 1012.7
20260902115510 49 49 2.0 6.0 0.00 0.00 0.00 72 1012.8
20260902115005 49 19 2.0 6.0 0.00 0.00 0.00 72 1012.8
20260902114518 49 18 3.0 6.0 0.00 0.00 0.00 73 1012.9
20260902114010 49 31 3.0 6.0 0.00 0.00 0.00 73 1012.9
20260902113510 49 32 2.0 6.0 0.00 0.00 0.00 73 1012.9
20260902113014 49 70 1.0 9.0 0.00 0.00 0.00 73 1013.0
20260902112509 50 29 3.0 9.0 0.00 0.00 0.00 73 1013.1
20260902112014 49 349 4.0 9.0 0.00 0.00 0.00 74 1013.1
20260902111521 50 353 6.0 10.0 0.00 0.00 0.00 74 1013.2
20260902111013 50 321 6.0 10.0 0.00 0.00 0.00 74 1013.3
20260902110512 49 330 4.0 10.0 0.00 0.00 0.00 74 1013.4
20260902110025 49 317 5.0 10.0 0.00 0.00 0.00 75 1013.5
20260902105516 49 327 6.0 9.0 0.00 0.00 0.00 75 1013.4
20260902105017 49 318 6.0 10.0 0.00 0.00 0.00 75 1013.4
20260902104514 49 337 7.0 10.0 0.00 0.00 0.00 74 1013.4
20260902104016 48 318 7.0 10.0 0.00 0.00 0.00 75 1013.4
20260902103512 48 331 5.0 11.0 0.00 0.00 0.00 75 1013.3
20260902103009 47 333 7.0 11.0 0.00 0.00 0.00 74 1013.3
20260902102509 48 326 5.0 9.0 0.00 0.00 0.00 73 1013.2
20260902102010 49 343 5.0 9.0 0.00 0.00 0.00 72 1013.1
20260902101518 49 318 5.0 10.0 0.00 0.00 0.00 71 1013.1
20260902101014 50 326 6.0 10.0 0.00 0.00 0.00 71 1013.2
20260902100513 50 322 5.0 11.0 0.00 0.00 0.00 71 1013.1
20260902100027 50 310 6.0 11.0 0.00 0.00 0.00 70 1012.9
20260902095514 51 328 7.0 12.0 0.00 0.00 0.00 70 1012.8
20260902095016 51 345 7.0 14.0 0.00 0.00 0.00 71 1012.9
20260902094530 51 322 8.0 14.0 0.00 0.00 0.00 71 1012.8
20260902094012 51 297 8.0 14.0 0.00 0.00 0.00 71 1012.7
20260902093518 51 328 7.0 13.0 0.00 0.00 0.00 71 1012.7
20260902093035 51 323 8.0 14.0 0.00 0.00 0.00 72 1012.6
20260902092519 50 325 9.0 14.0 0.00 0.00 0.00 72 1012.6
20260902092016 50 349 8.0 14.0 0.00 0.00 0.00 72 1012.5
20260902091527 50 356 10.0 14.0 0.00 0.00 0.00 72 1012.5
20260902091012 50 335 9.0 12.0 0.00 0.00 0.00 72 1012.4
20260902090513 50 331 8.0 12.0 0.00 0.00 0.00 71 1012.5
20260902090018 50 312 7.0 12.0 0.00 0.00 0.00 71 1012.5
20260902085511 50 318 7.0 12.0 0.00 0.00 0.00 71 1012.5
20260902085015 51 314 7.0 11.0 0.00 0.00 0.00 70 1012.5
20260902084528 51 342 7.0 11.0 0.00 0.00 0.00 70 1012.4
20260902084015 51 324 7.0 11.0 0.00 0.00 0.00 69 1012.4
20260902083513 52 320 7.0 11.0 0.00 0.00 0.00 69 1012.3
20260902083036 52 331 7.0 11.0 0.00 0.00 0.00 69 1012.4
20260902082503 52 341 7.0 12.0 0.00 0.00 0.00 69 1012.4
20260902082008 52 339 8.0 13.0 0.00 0.00 0.00 69 1012.3
20260902081507 53 344 7.0 13.0 0.00 0.00 0.00 69 1012.3
20260902081016 53 338 8.0 14.0 0.00 0.00 0.00 68 1012.4
20260902080509 53 334 10.0 14.0 0.00 0.00 0.00 68 1012.4
20260902080005 53 351 7.0 12.0 0.00 0.00 0.00 69 1012.3
20260902075511 54 343 7.0 12.0 0.00 0.00 0.00 68 1012.3
20260902075007 54 335 7.0 13.0 0.00 0.00 0.00 68 1012.2
20260902074505 55 328 8.0 14.0 0.00 0.00 0.00 67 1012.2
20260902074012 55 345 8.0 17.0 0.00 0.00 0.00 67 1012.1
20260902073505 56 324 9.0 17.0 0.00 0.00 0.00 67 1012.1
20260902073014 56 337 6.0 16.0 0.00 0.00 0.00 67 1012.2
20260902072503 56 347 9.0 19.0 0.00 0.00 0.00 66 1012.2
20260902072006 57 8 9.0 19.0 0.00 0.00 0.00 66 1012.2
20260902071507 57 14 8.0 16.0 0.00 0.00 0.00 66 1012.2
20260902071008 57 10 6.0 17.0 0.00 0.00 0.00 66 1012.2
20260902070507 56 347 8.0 17.0 0.00 0.00 0.00 65 1012.1
20260902070015 57 358 10.0 19.0 0.00 0.00 0.00 64 1012.2
20260902065508 57 347 11.0 19.0 0.00 0.00 0.00 64 1012.2
20260902065012 58 344 9.0 17.0 0.00 0.00 0.00 63 1012.2
20260902064517 58 11 7.0 14.0 0.00 0.00 0.00 65 1012.2
20260902064006 57 351 6.0 14.0 0.00 0.00 0.00 65 1012.3
20260902063512 57 339 7.0 16.0 0.00 0.00 0.00 65 1012.3
20260902063017 57 345 10.0 16.0 0.00 0.00 0.00 63 1012.4
20260902062516 59 332 9.0 15.0 0.00 0.00 0.00 62 1012.5
20260902062014 60 341 9.0 15.0 0.00 0.00 0.00 63 1012.5
20260902061506 59 339 7.0 17.0 0.00 0.00 0.00 65 1012.6
20260902061011 59 349 8.0 18.0 0.00 0.00 0.00 62 1012.6
20260902060508 60 358 9.0 18.0 0.00 0.00 0.00 64 1012.7
20260902060008 58 11 6.0 15.0 0.00 0.00 0.00 64 1012.5
20260902055508 58 347 6.0 17.0 0.00 0.00 0.00 64 1012.6
20260902055010 59 7 8.0 17.0 0.00 0.00 0.00 62 1012.7
20260902054524 60 337 13.0 17.0 0.00 0.00 0.00 61 1012.6
20260902054009 58 339 8.0 16.0 0.00 0.00 0.00 64 1012.7
20260902053508 59 336 9.0 19.0 0.00 0.00 0.00 60 1012.7
20260902053026 60 338 12.0 19.0 0.00 0.00 0.00 60 1012.7
20260902052509 59 330 8.0 17.0 0.00 0.00 0.00 61 1012.8
20260902052014 59 339 12.0 18.0 0.00 0.00 0.00 59 1012.9
20260902051527 60 337 7.0 18.0 0.00 0.00 0.00 60 1012.9
20260902051007 61 311 13.0 18.0 0.00 0.00 0.00 57 1012.8
20260902050520 61 330 11.0 18.0 0.00 0.00 0.00 59 1012.8
20260902050010 60 349 10.0 19.0 0.00 0.00 0.00 61 1012.8
20260902045505 60 351 11.0 22.0 0.00 0.00 0.00 59 1012.8
20260902045008 60 3 7.0 22.0 0.00 0.00 0.00 61 1012.8
20260902044513 60 337 9.0 17.0 0.00 0.00 0.00 62 1012.8
20260902044009 60 345 9.0 21.0 0.00 0.00 0.00 61 1012.9
20260902043510 60 340 11.0 21.0 0.00 0.00 0.00 59 1012.9
20260902043017 61 4 11.0 21.0 0.00 0.00 0.00 60 1012.8
20260902042511 61 346 13.0 21.0 0.00 0.00 0.00 61 1012.7
20260902042012 60 329 12.0 20.0 0.00 0.00 0.00 60 1012.8
20260902041510 61 338 9.0 18.0 0.00 0.00 0.00 63 1012.7
20260902041016 60 4 11.0 21.0 0.00 0.00 0.00 62 1012.8
20260902040511 61 16 12.0 21.0 0.00 0.00 0.00 61 1012.8
20260902040030 60 336 11.0 18.0 0.00 0.00 0.00 60 1012.8
20260902035512 60 334 10.0 18.0 0.00 0.00 0.00 60 1012.8
20260902035010 62 342 11.0 20.0 0.00 0.00 0.00 61 1012.9
20260902034530 61 336 10.0 20.0 0.00 0.00 0.00 61 1012.9
20260902034007 61 312 9.0 16.0 0.00 0.00 0.00 66 1013.0
20260902033512 59 333 1.0 5.0 0.00 0.00 0.00 71 1013.1
20260902033016 58 141 0.0 4.0 0.00 0.00 0.00 70 1013.2
20260902032512 58 139 2.0 5.0 0.00 0.00 0.00 71 1013.3
20260902032023 57 132 1.0 6.0 0.00 0.00 0.00 71 1013.3
20260902031527 58 195 4.0 6.0 0.00 0.00 0.00 71 1013.3
20260902031011 58 135 3.0 6.0 0.00 0.00 0.00 71 1013.4
20260902030514 58 105 3.0 6.0 0.00 0.00 0.00 71 1013.6
20260902030024 58 204 2.0 6.0 0.00 0.00 0.00 72 1013.6
20260902025519 58 175 4.0 7.0 0.00 0.00 0.00 71 1013.7
20260902025014 57 260 1.0 7.0 0.00 0.00 0.00 72 1013.7
20260902024521 57 209 1.0 5.0 0.00 0.00 0.00 72 1014.0
20260902024019 57 128 1.0 4.0 0.00 0.00 0.00 72 1014.1
20260902023516 57 214 2.0 6.0 0.00 0.00 0.00 72 1014.2
20260902023033 56 175 2.0 6.0 0.00 0.00 0.00 74 1014.1
20260902022504 56 193 2.0 10.0 0.00 0.00 0.00 73 1014.4
20260902022005 55 232 5.0 10.0 0.00 0.00 0.00 72 1014.5
20260902021525 56 219 4.0 9.0 0.00 0.00 0.00 72 1014.5
20260902021007 56 191 3.0 9.0 0.00 0.00 0.00 73 1014.5
20260902020504 56 192 4.0 9.0 0.00 0.00 0.00 73 1014.7
20260902020004 56 208 3.0 9.0 0.00 0.00 0.00 70 1014.8
20260902015504 57 147 1.0 3.0 0.00 0.00 0.00 70 1014.9
20260902015004 57 71 0.0 2.0 0.00 0.00 0.00 71 1014.9
20260902014507 56 70 0.0 3.0 0.00 0.00 0.00 73 1015.0
20260902014006 55 101 1.0 7.0 0.00 0.00 0.00 72 1015.1
20260902013510 55 98 3.0 8.0 0.00 0.00 0.00 73 1015.2
20260902013007 55 121 5.0 8.0 0.00 0.00 0.00 73 1015.2
20260902012508 55 77 2.0 6.0 0.00 0.00 0.00 74 1015.2
20260902012008 54 72 1.0 9.0 0.00 0.00 0.00 74 1015.2
20260902011510 54 100 3.0 9.0 0.00 0.00 0.00 75 1015.3
20260902011012 54 210 3.0 5.0 0.00 0.00 0.00 77 1015.5
20260902010503 53 192 3.0 6.0 0.00 0.00 0.00 76 1015.5
20260902010023 53 142 3.0 9.0 0.00 0.00 0.00 76 1015.6
20260902005511 53 117 2.0 9.0 0.00 0.00 0.00 76 1015.7
20260902005005 53 172 3.0 8.0 0.00 0.00 0.00 77 1015.8
20260902004504 52 213 2.0 8.0 0.00 0.00 0.00 77 1015.9
20260902004006 52 166 4.0 8.0 0.00 0.00 0.00 78 1015.9
20260902003504 52 180 3.0 7.0 0.00 0.00 0.00 78 1015.9
20260902003010 52 198 4.0 7.0 0.00 0.00 0.00 79 1015.8
20260902002505 51 167 3.0 6.0 0.00 0.00 0.00 79 1015.9
20260902002010 51 180 3.0 8.0 0.00 0.00 0.00 78 1016.0
20260902001514 51 169 5.0 8.0 0.00 0.00 0.00 79 1016.1
20260902001006 51 129 3.0 9.0 0.00 0.00 0.00 79 1016.1
20260902000512 51 180 4.0 9.0 0.00 0.00 0.00 79 1016.0
20260902000015 51 195 4.0 9.0 0.00 0.00 0.00 80 1016.1
20260901235514 50 172 5.0 8.0 0.00 0.00 0.00 80 1016.1
20260901235011 50 185 5.0 8.0 0.00 0.00 0.00 80 1016.0
20260901234510 50 198 5.0 9.0 0.00 0.00 0.00 81 1015.9
20260901234018 50 159 5.0 9.0 0.00 0.00 0.00 81 1016.0
20260901233507 50 193 4.0 8.0 0.00 0.00 0.00 81 1016.0
20260901233006 50 160 4.0 8.0 0.00 0.00 0.00 81 1016.1
20260901232506 51 172 3.0 6.0 0.00 0.00 0.00 82 1016.1
20260901232004 51 143 3.0 8.0 0.00 0.00 0.00 82 1016.1
20260901231510 50 175 5.0 8.0 0.00 0.00 0.00 82 1016.1
20260901231005 50 149 4.0 9.0 0.00 0.00 0.00 82 1016.1
20260901230506 51 159 4.0 9.0 0.00 0.00 0.00 82 1016.1
20260901230022 51 185 4.0 8.0 0.00 0.00 0.00 82 1016.1
20260901225513 51 199 4.0 9.0 0.00 0.00 0.00 82 1016.0
20260901225005 51 194 6.0 9.0 0.00 0.00 0.00 82 1016.1
20260901224529 51 196 5.0 8.0 0.00 0.00 0.00 82 1016.1
20260901224010 51 196 4.0 8.0 0.00 0.00 0.00 83 1016.1
20260901223513 51 189 3.0 5.0 0.00 0.00 0.00 83 1016.1
20260901223024 51 148 2.0 5.0 0.00 0.00 0.00 83 1016.1
20260901222508 51 104 3.0 5.0 0.00 0.00 0.00 83 1016.0
20260901222016 51 113 3.0 5.0 0.00 0.00 0.00 83 1016.1
20260901221521 50 133 4.0 5.0 0.00 0.00 0.00 83 1016.0
20260901221008 50 113 1.0 4.0 0.00 0.00 0.00 83 1015.9
20260901220505 50 160 1.0 4.0 0.00 0.00 0.00 83 1015.9
20260901220027 50 135 1.0 4.0 0.00 0.00 0.00 83 1015.8
20260901215512 50 137 2.0 5.0 0.00 0.00 0.00 83 1015.7
20260901215011 50 115 3.0 5.0 0.00 0.00 0.00 84 1015.6
20260901214509 50 145 2.0 4.0 0.00 0.00 0.00 84 1015.6
20260901214013 50 147 3.0 4.0 0.00 0.00 0.00 84 1015.5
20260901213512 50 153 2.0 3.0 0.00 0.00 0.00 84 1015.6
20260901213057 50 145 0.0 3.0 0.00 0.00 0.00 84 1015.6
20260901212514 50 145 1.0 4.0 0.00 0.00 0.00 84 1015.5
20260901212014 50 145 2.0 4.0 0.00 0.00 0.00 84 1015.4
20260901211514 50 153 1.0 3.0 0.00 0.00 0.00 84 1015.3
20260901211019 50 153 1.0 3.0 0.00 0.00 0.00 84 1015.3
20260901210511 50 153 0.0 3.0 0.00 0.00 0.00 84 1015.3
20260901210033 50 189 2.0 3.0 0.00 0.00 0.00 84 1015.3
20260901205518 50 197 0.0 3.0 0.00 0.00 0.00 83 1015.2
20260901205009 50 197 0.0 5.0 0.00 0.00 0.00 83 1015.3
20260901204512 50 197 2.0 5.0 0.00 0.00 0.00 83 1015.1
20260901204012 50 185 4.0 5.0 0.00 0.00 0.00 83 1015.0
20260901203510 50 191 3.0 5.0 0.00 0.00 0.00 83 1014.9
20260901203042 50 200 2.0 5.0 0.00 0.00 0.00 83 1015.1
20260901202511 50 202 3.0 5.0 0.00 0.00 0.00 83 1015.1
20260901202017 50 185 3.0 5.0 0.00 0.00 0.00 83 1015.0
20260901201525 50 197 2.0 5.0 0.00 0.00 0.00 83 1014.8
20260901201015 51 236 2.0 8.0 0.00 0.00 0.00 83 1014.7
20260901200515 51 206 4.0 8.0 0.00 0.00 0.00 83 1014.7
20260901200031 51 206 4.0 8.0 0.00 0.00 0.00 83 1014.7
20260901195514 51 164 3.0 10.0 0.00 0.00 0.00 83 1014.7
20260901195020 51 191 5.0 11.0 0.00 0.00 0.00 83 1014.6
20260901194523 51 167 5.0 11.0 0.00 0.00 0.00 83 1014.6
20260901194020 51 185 5.0 11.0 0.00 0.00 0.00 82 1014.6
20260901193508 52 180 7.0 12.0 0.00 0.00 0.00 82 1014.5
20260901193019 52 204 9.0 13.0 0.00 0.00 0.00 81 1014.3
20260901192512 53 149 8.0 13.0 0.00 0.00 0.00 80 1014.2
20260901192013 54 214 8.0 12.0 0.00 0.00 0.00 80 1014.1
20260901191525 54 199 7.0 11.0 0.00 0.00 0.00 79 1014.1
20260901191017 55 240 4.0 8.0 0.00 0.00 0.00 78 1013.9
20260901190514 55 8 3.0 11.0 0.00 0.00 0.00 78 1013.8
20260901190029 55 29 5.0 11.0 0.00 0.00 0.00 78 1013.7
20260901185517 54 14 5.0 11.0 0.00 0.00 0.00 78 1013.7
20260901185009 54 4 3.0 11.0 0.00 0.00 0.00 78 1013.7
20260901184532 54 349 3.0 8.0 0.00 0.00 0.00 78 1013.8
20260901184017 55 26 2.0 9.0 0.00 0.00 0.00 78 1013.7
20260901183517 55 3 6.0 9.0 0.00 0.00 0.00 78 1013.7
20260901183040 55 14 4.0 9.0 0.00 0.00 0.00 78 1013.6
20260901182512 55 8 5.0 9.0 0.00 0.00 0.00 78 1013.6
20260901182019 55 356 5.0 10.0 0.00 0.00 0.00 78 1013.6
20260901181523 55 314 5.0 10.0 0.00 0.00 0.00 78 1013.6
20260901181012 55 346 6.0 11.0 0.00 0.00 0.00 77 1013.5
20260901180516 55 332 7.0 11.0 0.00 0.00 0.00 77 1013.4
20260901180025 55 341 7.0 11.0 0.00 0.00 0.00 77 1013.4
20260901175516 55 326 6.0 11.0 0.00 0.00 0.00 77 1013.6
20260901175016 55 326 7.0 14.0 0.00 0.00 0.00 77 1013.6
20260901174526 55 346 8.0 14.0 0.00 0.00 0.00 76 1013.5
20260901174018 55 358 7.0 12.0 0.00 0.00 0.00 76 1013.5
20260901173521 55 343 6.0 11.0 0.00 0.00 0.00 76 1013.7
20260901173047 55 318 5.0 10.0 0.00 0.00 0.00 76 1013.8
20260901172508 55 333 5.0 9.0 0.00 0.00 0.00 76 1013.7
20260901172003 55 333 6.0 9.0 0.00 0.00 0.00 75 1013.6
20260901171517 55 324 5.0 9.0 0.00 0.00 0.00 75 1013.7
20260901171003 55 358 6.0 11.0 0.00 0.00 0.00 75 1013.6
20260901170503 55 345 7.0 11.0 0.00 0.00 0.00 75 1013.6
20260901170005 55 12 6.0 12.0 0.00 0.00 0.00 75 1013.7
20260901165504 55 29 7.0 12.0 0.00 0.00 0.00 76 1013.6
20260901165002 55 16 6.0 10.0 0.00 0.00 0.00 76 1013.7
20260901164505 55 342 6.0 10.0 0.00 0.00 0.00 75 1013.9
20260901164003 55 318 4.0 10.0 0.00 0.00 0.00 75 1013.9
20260901163506 55 320 6.0 10.0 0.00 0.00 0.00 76 1013.9
20260901163010 55 342 7.0 10.0 0.00 0.00 0.00 75 1014.0
20260901162504 54 314 5.0 9.0 0.00 0.00 0.00 76 1013.9
20260901162008 54 324 4.0 13.0 0.00 0.00 0.00 75 1013.8
20260901161507 54 343 7.0 13.0 0.00 0.00 0.00 75 1013.8
20260901161010 54 1 8.0 12.0 0.00 0.00 0.00 74 1013.8
20260901160508 55 358 8.0 14.0 0.00 0.00 0.00 74 1013.9
20260901160006 55 340 8.0 15.0 0.00 0.00 0.00 73 1013.9
20260901155509 55 331 10.0 18.0 0.00 0.00 0.00 73 1013.9
20260901155005 55 313 10.0 18.0 0.00 0.00 0.00 73 1014.0
20260901154504 56 341 11.0 26.0 0.00 0.00 0.00 72 1014.0
20260901154004 56 342 11.0 26.0 0.00 0.00 0.00 71 1013.9
20260901153505 56 342 14.0 18.0 0.00 0.00 0.00 72 1013.9
20260901153007 56 336 11.0 18.0 0.00 0.00 0.00 71 1014.0
20260901152512 56 354 12.0 18.0 0.00 0.00 0.00 71 1013.9
20260901152004 56 330 11.0 18.0 0.00 0.00 0.00 71 1013.9
20260901151512 56 335 11.0 18.0 0.00 0.00 0.00 70 1013.9
20260901151020 57 331 11.0 22.0 0.00 0.00 0.00 70 1013.8
20260901150503 57 341 12.0 22.0 0.00 0.00 0.00 70 1013.8
20260901150014 57 345 12.0 21.0 0.00 0.00 0.00 69 1014.0
20260901145504 57 352 12.0 21.0 0.00 0.00 0.00 69 1014.0
20260901145012 57 346 14.0 22.0 0.00 0.00 0.00 69 1013.9
20260901144523 57 341 14.0 22.0 0.00 0.00 0.00 69 1013.9
20260901144004 57 351 12.0 21.0 0.00 0.00 0.00 70 1014.0
20260901143513 57 348 12.0 21.0 0.00 0.00 0.00 70 1014.0
20260901143005 57 329 11.0 19.0 0.00 0.00 0.00 70 1014.0
20260901142504 57 336 12.0 20.0 0.00 0.00 0.00 71 1014.0
20260901142006 57 22 12.0 20.0 0.00 0.00 0.00 71 1013.9
20260901141508 57 351 12.0 19.0 0.00 0.00 0.00 71 1013.9
20260901141008 57 349 12.0 20.0 0.00 0.00 0.00 70 1014.0
20260901140506 57 14 12.0 20.0 0.00 0.00 0.00 70 1014.0
20260901140005 57 16 11.0 18.0 0.00 0.00 0.00 70 1013.9
20260901135508 57 345 12.0 18.0 0.00 0.00 0.00 70 1014.0
20260901135008 57 327 11.0 19.0 0.00 0.00 0.00 71 1014.1
20260901134523 57 341 11.0 19.0 0.00 0.00 0.00 71 1014.3
20260901134019 57 1 9.0 17.0 0.00 0.00 0.00 71 1014.3
20260901133507 57 353 9.0 15.0 0.00 0.00 0.00 71 1014.2
20260901133028 57 337 8.0 13.0 0.00 0.00 0.00 71 1014.2
20260901132510 57 8 8.0 13.0 0.00 0.00 0.00 71 1014.3
20260901132004 57 21 8.0 13.0 0.00 0.00 0.00 70 1014.3
20260901131506 57 19 6.0 16.0 0.00 0.00 0.00 69 1014.4
20260901131006 57 327 9.0 16.0 0.00 0.00 0.00 68 1014.6
20260901130506 57 322 10.0 16.0 0.00 0.00 0.00 68 1014.4
20260901130018 57 3 10.0 16.0 0.00 0.00 0.00 68 1014.5